Location: Cheadle
(51.0146°N, 113.5417°W)
Time: 16:03:57
(UTC+00:00)

BlueWalker 3 - Pass Details

Date: 16 April 2024
Orbit: 482 x 494 km, 53.2° (Epoch: 19 May)

Event Time Altitude Azimuth Distance (km) Brightness Sun altitude
Exits shadow 10:38:07 35° 199° (SSW) 821 2.5 -16.8°
Drops below altitude 10° 10:41:14 10° 147° (SSE) 1,695 4.5 -16.5°
Sets 10:43:30 0° 139° (SE) 2,573 5.5 -16.2°
